CZ-6A DEB

Satellite information

Favourite Embed

Satellite Type and Status

DEBRISIN ORBIT

Key statistics

Satellite CZ-6A DEB at a glance.

Uptime

1032

Days in orbit

Revolutions

≈ 14.1

Per day

Orbit

SSO

Sun Synchronous Orbit

Inclination

98.8

Latest

Satellite identification and parameters

Extended collection of information and parameters for CZ-6A DEB.

Object identification

Identified? True

Debris? True

Object name: CZ-6A DEB

International designator: 2022-151AS

Object number (NORAD): 54299

Object ID (CCSDS): 54299

Country: PEOPLES REPUBLIC OF CHINA (PRC)

Current information (Y/N): Y

RCS size: SMALL

Orbital parameters

Period: 102.309 minutes

Inclination: 98.8414 deg

SMA: 7246.065 km

Apoapsis: 908.099 km

Periapsis: 827.76 km

RAAN: 246.4485 deg

Eccentricy: 0.00554362

Argument of periapsis: 66.1524 deg

Mean anomaly: 294.5442 deg

Mean motion: 14.07503393 rev/day

Mean motion (dot): 0.0000007 rev/day2

B* drag term: 0.000066145489 1/REarth

Two-line elements (TLE)

Creation date: Sept. 7, 2025, 3:09 a.m.

Reference frame: TEME

Reference center: EARTH

Epoch: Sept. 6, 2025, 10:56 p.m. UTC

TLE line 0: 0 CZ-6A DEB

TLE line 1: 1 54299U 22151AS 25249.95561255 .00000070 00000-0 66145-4 0 9993

TLE line 2: 2 54299 98.8414 246.4485 0055436 66.1524 294.5442 14.07503393144289

Live tracking on map

Real-time ground track for satellite CZ-6A DEB.

In-orbit conjunctions

A list of the most updated potential collisions computed for object CZ-6A DEB.

Target Orbit TCA Probability of collision Miss distance Type
COSMOS 1275 DEB LEO 2024-09-19 18:50:13 0.0001570365 140.0 (m) DEBRIS

Associated space launch

Chinese satellite reported for atmospheric/ocean/environmental/spatial parameter research purposes, details TBD.

CZ-6A DEB was lifted into orbit during the mission ‘Long March 6A | Yunhai 3’, on board a Long March 6A space rocket.

The launch took place on Nov. 11, 2022, 10:52 p.m. from Launch Complex 9A.

For more information about the launch, click the button.

Launch to space Long March 6A | Yunhai 3
Long March 6A | Yunhai 3

Agency: N/A

Status: Launch Successful

Launch date: Nov. 11, 2022, 10:52 p.m. UTC

Rocket: Long March 6A

Launch pad: Launch Complex 9A

Location: Taiyuan Satellite Launch Center, People's Republic of China

...

Latest news about this satellite

There are no fresh news available about this satellite. Check back as we update our databases every day.


Newsletter sign-up

Weekly statistics, charts and insights to help you stay on top of the space industry.